Richlands, VA

10:58 PM EDT on May 28, 2017 (GMT -0400)
Tazewell County

Weather History for KJFZ - January, 2012

Change the Weather History Date:

Tuesday, January 3, 2012

  Actual Average (KBLF) Record (KBLF)
Temperature  
Mean Temperature 14 °F -  
Max Temperature 17 °F 41 °F 69 °F (2000)
Min Temperature 12 °F 28 °F -5 °F (1979)
Degree Days  
Heating Degree Days 50    
Moisture  
Dew Point 10 °F    
Average Humidity 85    
Maximum Humidity 100    
Minimum Humidity 68    
Precipitation  
Precipitation 0.00 in - - ()
Sea Level Pressure  
Sea Level Pressure 30.13 in    
Wind  
Wind Speed 9 mph (WNW)    
Max Wind Speed 18 mph    
Max Gust Speed 30 mph    
Visibility 6 miles    
Events      
Averages and records for this station are not official NWS values.
T = Trace of Precipitation, MM = Missing Value Source: NWS Daily Summary

Daily Weather History Graph

Daily Weather History Graph

Search for Another Location

Airport or City:

Trip Planner

Search our weather history database for the weather conditions in past years. The results will help you decide how hot, cold, wet, or windy it might be!

Date:

Astronomy

Jan. 03, 2012 Rise Set
Actual Time 7:40 AM EST 5:22 PM EST
Civil Twilight 7:12 AM EST 5:51 PM EST
Nautical Twilight 6:39 AM EST 6:23 PM EST
Astronomical Twilight 6:08 AM EST 6:55 PM EST
Moon 1:07 PM EST (1/3) 2:32 AM EST (1/3)
Length of Visible Light 10h 39m
Length of Day
9h 41m
Waxing Gibbous, 72% of the Moon is Illuminated
Jan 3
Waxing Gibbous
Jan 9
Full
Jan 16
Last Quarter
Jan 23
New
Jan 30
First Quarter

Hourly Weather History & Observations

Time (EST) Temp. Windchill Dew Point Humidity Pressure Visibility Wind Dir Wind Speed Gust Speed Precip Events Conditions
12:15 AM 12.2 °F 0.7 °F 12.2 °F 100% 30.02 in 4.0 mi WNW 8.1 mph - N/A   Unknown
12:35 AM 12.2 °F 2.9 °F 12.2 °F 100% 30.02 in 2.0 mi WNW 5.8 mph - N/A   Unknown
12:55 AM 12.2 °F -1.8 °F 12.2 °F 100% 30.02 in 1.2 mi WNW 11.5 mph - N/A   Unknown
1:15 AM 12.2 °F -0.2 °F 12.2 °F 100% 30.03 in 2.5 mi West 9.2 mph - N/A   Unknown
1:35 AM 12.2 °F 0.7 °F 12.2 °F 100% 30.02 in 2.5 mi WNW 8.1 mph - N/A   Unknown
1:55 AM 12.2 °F -1.8 °F 12.2 °F 100% 30.03 in 2.0 mi WNW 11.5 mph - N/A   Unknown
2:15 AM 12.2 °F 0.7 °F 12.2 °F 100% 30.04 in 1.5 mi WNW 8.1 mph - N/A   Unknown
2:35 AM 12.2 °F -1.0 °F 10.4 °F 92% 30.03 in 2.0 mi WNW 10.4 mph - N/A   Unknown
2:55 AM 12.2 °F -2.5 °F 12.2 °F 100% 30.05 in 2.0 mi WNW 12.7 mph - N/A   Unknown
3:15 AM 12.2 °F -0.2 °F 10.4 °F 92% 30.05 in 2.5 mi WNW 9.2 mph - N/A   Unknown
3:35 AM 12.2 °F 0.7 °F 10.4 °F 92% 30.06 in 3.0 mi WNW 8.1 mph - N/A   Unknown
3:55 AM 12.2 °F -1.0 °F 10.4 °F 92% 30.06 in 2.0 mi WNW 10.4 mph - N/A   Unknown
4:15 AM 12.2 °F -1.0 °F 10.4 °F 92% 30.06 in 2.0 mi WNW 10.4 mph - N/A   Unknown
4:35 AM 12.2 °F 0.7 °F 12.2 °F 100% 30.07 in 2.0 mi WNW 8.1 mph - N/A   Unknown
4:55 AM 12.2 °F -0.2 °F 10.4 °F 92% 30.08 in 2.5 mi WNW 9.2 mph - N/A   Unknown
5:15 AM 12.2 °F -0.2 °F 10.4 °F 92% 30.07 in 3.0 mi West 9.2 mph - N/A   Unknown
5:35 AM 12.2 °F -1.0 °F 10.4 °F 92% 30.09 in 2.5 mi West 10.4 mph - N/A   Unknown
6:15 AM 12.2 °F 2.9 °F 12.2 °F 100% 30.10 in 2.0 mi WNW 5.8 mph - N/A   Unknown
6:35 AM 12.2 °F 1.7 °F 12.2 °F 100% 30.12 in 2.0 mi West 6.9 mph - N/A   Unknown
6:55 AM 12.2 °F -0.2 °F 12.2 °F 100% 30.12 in 2.5 mi West 9.2 mph - N/A   Unknown
7:15 AM 12.2 °F -1.0 °F 10.4 °F 92% 30.12 in 2.5 mi WNW 10.4 mph - N/A   Unknown
7:55 AM 12.2 °F -1.8 °F 10.4 °F 92% 30.13 in 3.0 mi West 11.5 mph - N/A   Unknown
8:15 AM 12.2 °F 0.7 °F 10.4 °F 92% 30.15 in 2.5 mi WNW 8.1 mph - N/A   Unknown
8:35 AM 12.2 °F -1.8 °F 10.4 °F 92% 30.14 in 2.0 mi WNW 11.5 mph - N/A   Unknown
9:15 AM 12.2 °F -1.8 °F 10.4 °F 92% 30.16 in 3.0 mi WNW 11.5 mph - N/A   Unknown
9:35 AM 12.2 °F -0.2 °F 10.4 °F 92% 30.16 in 4.0 mi West 9.2 mph - N/A   Unknown
9:55 AM 12.2 °F -2.5 °F 10.4 °F 92% 30.18 in 2.5 mi WNW 12.7 mph - N/A   Unknown
10:15 AM 12.2 °F 0.7 °F 10.4 °F 92% 30.18 in 2.0 mi WNW 8.1 mph - N/A   Unknown
10:35 AM 14.0 °F 2.0 °F 8.6 °F 79% 30.17 in 7.0 mi West 9.2 mph - N/A   Unknown
10:55 AM 14.0 °F -0.2 °F 10.4 °F 86% 30.18 in 4.0 mi WNW 12.7 mph - N/A   Unknown
11:15 AM 14.0 °F 2.9 °F 10.4 °F 86% 30.17 in 2.5 mi WNW 8.1 mph - N/A   Unknown
11:35 AM 14.0 °F 1.2 °F 10.4 °F 86% 30.17 in 3.0 mi WNW 10.4 mph - N/A   Unknown
11:55 AM 14.0 °F 3.9 °F 12.2 °F 93% 30.17 in 1.2 mi NW 6.9 mph - N/A   Unknown
12:35 PM 15.8 °F 3.4 °F 10.4 °F 79% 30.15 in 7.0 mi West 10.4 mph - N/A   Unknown
12:55 PM 15.8 °F 2.7 °F 10.4 °F 79% 30.14 in 6.0 mi WNW 11.5 mph - N/A   Unknown
1:15 PM 15.8 °F 2.7 °F 8.6 °F 73% 30.13 in 3.0 mi WNW 11.5 mph - N/A   Unknown
1:35 PM 15.8 °F 0.9 °F 8.6 °F 73% 30.13 in 3.0 mi WNW 15.0 mph - N/A   Unknown
1:55 PM 15.8 °F 1.4 °F 8.6 °F 73% 30.12 in 3.0 mi WNW 13.8 mph 27.6 mph N/A   Unknown
2:15 PM 15.8 °F 1.4 °F 8.6 °F 73% 30.13 in 5.0 mi NW 13.8 mph - N/A   Unknown
2:35 PM 15.8 °F 2.1 °F 8.6 °F 73% 30.13 in 9.0 mi WNW 12.7 mph - N/A   Unknown
2:55 PM 15.8 °F -0.6 °F 8.6 °F 73% 30.13 in 3.0 mi WNW 18.4 mph 29.9 mph N/A   Unknown
3:15 PM 15.8 °F 3.4 °F 8.6 °F 73% 30.14 in 10.0 mi West 10.4 mph - N/A   Unknown
3:35 PM 15.8 °F 0.9 °F 8.6 °F 73% 30.13 in 10.0 mi WNW 15.0 mph - N/A   Unknown
3:55 PM 15.8 °F 2.1 °F 8.6 °F 73% 30.14 in 10.0 mi WNW 12.7 mph - N/A   Unknown
4:15 PM 17.6 °F 5.0 °F 8.6 °F 68% 30.14 in 10.0 mi West 11.5 mph - N/A   Unknown
4:35 PM 15.8 °F 3.4 °F 6.8 °F 68% 30.14 in 5.0 mi WNW 10.4 mph - N/A   Unknown
4:55 PM 15.8 °F 4.2 °F 8.6 °F 73% 30.16 in 10.0 mi West 9.2 mph - N/A   Unknown
5:15 PM 15.8 °F 3.4 °F 8.6 °F 73% 30.15 in 10.0 mi WNW 10.4 mph - N/A   Unknown
5:35 PM 15.8 °F 2.7 °F 8.6 °F 73% 30.17 in 10.0 mi West 11.5 mph - N/A   Unknown
5:55 PM 15.8 °F 4.2 °F 8.6 °F 73% 30.18 in 10.0 mi West 9.2 mph - N/A   Unknown
6:15 PM 15.8 °F 6.1 °F 8.6 °F 73% 30.18 in 10.0 mi WNW 6.9 mph - N/A   Unknown
6:35 PM 15.8 °F 7.2 °F 8.6 °F 73% 30.20 in 10.0 mi West 5.8 mph - N/A   Unknown
6:55 PM 15.8 °F 5.1 °F 8.6 °F 73% 30.20 in 10.0 mi WNW 8.1 mph - N/A   Unknown
7:15 PM 15.8 °F 4.2 °F 8.6 °F 73% 30.20 in 10.0 mi WNW 9.2 mph - N/A   Unknown
7:35 PM 14.0 °F 5.1 °F 8.6 °F 79% 30.21 in 10.0 mi WNW 5.8 mph - N/A   Unknown
7:55 PM 14.0 °F 5.1 °F 6.8 °F 73% 30.21 in 10.0 mi West 5.8 mph - N/A   Unknown
8:15 PM 14.0 °F 3.9 °F 8.6 °F 79% 30.22 in 10.0 mi West 6.9 mph - N/A   Unknown
8:35 PM 14.0 °F 5.1 °F 8.6 °F 79% 30.22 in 10.0 mi West 5.8 mph - N/A   Unknown
8:55 PM 14.0 °F 5.1 °F 8.6 °F 79% 30.22 in 10.0 mi West 5.8 mph - N/A   Unknown
9:15 PM 14.0 °F 6.5 °F 8.6 °F 79% 30.22 in 10.0 mi West 4.6 mph - N/A   Unknown
9:35 PM 14.0 °F 6.5 °F 8.6 °F 79% 30.21 in 10.0 mi West 4.6 mph - N/A   Unknown
9:55 PM 14.0 °F 6.5 °F 8.6 °F 79% 30.21 in 10.0 mi West 4.6 mph - N/A   Unknown
10:15 PM 12.2 °F - 8.6 °F 85% 30.21 in 10.0 mi Calm Calm - N/A   Unknown
10:55 PM 12.2 °F 6.1 °F 8.6 °F 85% 30.20 in 10.0 mi WSW 3.5 mph - N/A   Unknown
11:55 PM 12.2 °F 2.9 °F 8.6 °F 85% 30.19 in 10.0 mi SW 5.8 mph - N/A   Unknown